This demonstration page uses our WeatherBlox Daily Observations layout. Learn more.

Hourly Observations for April 11, 2019

Temp ( °F °C ) Dew Point ( °F °C ) Humidity (%) Winds ( mph kmh ) Pressure ( in mb ) Visibility ( mi km ) Precip ( " mm )
12:15 am 00:15 Clear 54 12 37 3 54 54 NE 5 7 30 1016 10 16.09344 0 0
12:35 am 00:35 Clear 52 11 39 4 62 62 Calm 30.03 1017 10 16.09344 0 0
12:55 am 00:55 Clear 48 9 41 5 76 76 N 6 9 30.06 1018 10 16.09344 0 0
1:15 am 01:15 Mostly Cloudy 52 11 39 4 62 62 NNE 8 13 30.06 1018 10 16.09344 0 0
1:35 am 01:35 Cloudy 54 12 37 3 54 54 NNE 10 17 30.06 1018 10 16.09344 0 0
1:55 am 01:55 Mostly Cloudy 52 11 37 3 58 58 NNE 12 19 30.06 1018 10 16.09344 0 0
2:15 am 02:15 Partly Cloudy 52 11 37 3 58 58 NNE 10 17 30.06 1018 10 16.09344 0 0
2:35 am 02:35 Partly Cloudy 52 11 37 3 58 58 NE 9 15 30.06 1018 10 16.09344 0 0
2:55 am 02:55 Clear 52 11 37 3 58 58 NE 9 15 30.06 1018 10 16.09344 0 0
3:15 am 03:15 Clear 52 11 37 3 58 58 NE 10 17 30.06 1018 10 16.09344 0 0
3:35 am 03:35 Clear 50 10 36 2 58 58 NE 8 13 30.09 1019 10 16.09344 0 0
3:55 am 03:55 Clear 50 10 36 2 58 58 NE 10 17 30.09 1019 10 16.09344 0 0
4:15 am 04:15 Clear 50 10 36 2 58 58 NE 8 13 30.09 1019 10 16.09344 0 0
4:35 am 04:35 Clear 50 10 36 2 58 58 NE 9 15 30.12 1020 10 16.09344 0 0
4:55 am 04:55 Clear 48 9 36 2 62 62 NE 8 13 30.12 1020 10 16.09344 0 0
5:15 am 05:15 Clear 48 9 36 2 62 62 NE 8 13 30.12 1020 10 16.09344 0 0
5:35 am 05:35 Clear 46 8 36 2 66 66 NE 10 17 30.15 1021 10 16.09344 0 0
5:55 am 05:55 Clear 46 8 36 2 66 66 NE 12 19 30.15 1021 10 16.09344 0 0
6:15 am 06:15 Clear 46 8 36 2 66 66 NE 8 13 30.15 1021 10 16.09344 0 0
6:35 am 06:35 Clear 45 7 36 2 71 71 NE 8 13 30.18 1022 10 16.09344 0 0
6:55 am 06:55 Sunny 45 7 36 2 71 71 NE 8 13 30.18 1022 10 16.09344 0 0
7:15 am 07:15 Partly Cloudy 45 7 36 2 71 71 NE 7 11 30.18 1022 10 16.09344 0 0
7:35 am 07:35 Partly Cloudy 45 7 36 2 71 71 NE 9 15 30.21 1023 10 16.09344 0 0
7:55 am 07:55 Sunny 46 8 36 2 66 66 NE 6 9 30.21 1023 10 16.09344 0 0
8:15 am 08:15 Sunny 46 8 36 2 66 66 ENE 6 9 30.21 1023 10 16.09344 0 0
8:35 am 08:35 Sunny 46 8 36 2 66 66 ENE 10 17 30.21 1023 10 16.09344 0 0
8:55 am 08:55 Sunny 46 8 36 2 66 66 ENE 6 9 30.21 1023 10 16.09344 0 0
9:15 am 09:15 Sunny 50 10 36 2 58 58 ENE 10 17 30.21 1023 10 16.09344 0 0
9:35 am 09:35 Sunny 50 10 36 2 58 58 E 6 9 30.21 1023 10 16.09344 0 0
9:55 am 09:55 Sunny 50 10 36 2 58 58 SE 8 13 30.21 1023 10 16.09344 0 0
10:15 am 10:15 Sunny 52 11 36 2 54 54 E 8 13 30.21 1023 10 16.09344 0 0
10:35 am 10:35 Sunny 52 11 36 2 54 54 E 8 13 30.21 1023 10 16.09344 0 0
10:55 am 10:55 Sunny 54 12 36 2 51 51 ESE 6 9 30.18 1022 10 16.09344 0 0
11:15 am 11:15 Sunny 54 12 36 2 51 51 SE 10 17 30.18 1022 10 16.09344 0 0
11:35 am 11:35 Sunny 55 13 36 2 47 47 ESE 6 9 30.18 1022 10 16.09344 0 0
11:55 am 11:55 Sunny 55 13 37 3 51 51 SE 10 17 30.18 1022 10 16.09344 0 0
12:15 pm 12:15 Sunny 57 14 37 3 48 48 ESE 8 13 30.18 1022 10 16.09344 0 0
12:35 pm 12:35 Sunny 57 14 37 3 48 48 Calm 30.18 1022 10 16.09344 0 0
12:55 pm 12:55 Sunny 59 15 37 3 45 45 SE 7 11 30.18 1022 10 16.09344 0 0
1:15 pm 13:15 Sunny 59 15 37 3 45 45 SSE 9 15 30.18 1022 10 16.09344 0 0
1:35 pm 13:35 Partly Cloudy 59 15 39 4 48 48 SE 7 11 30.15 1021 10 16.09344 0 0
1:55 pm 13:55 Cloudy 59 15 39 4 48 48 SE 9 15 30.15 1021 10 16.09344 0 0
2:15 pm 14:15 Cloudy 59 15 39 4 48 48 ESE 12 19 30.15 1021 10 16.09344 0 0
2:35 pm 14:35 Cloudy 61 16 41 5 48 48 SE 9 15 30.15 1021 10 16.09344 0 0
2:55 pm 14:55 Cloudy 61 16 41 5 48 48 SSE 12 19 30.15 1021 10 16.09344 0 0
3:15 pm 15:15 Cloudy 61 16 43 6 52 52 SE 9 15 30.15 1021 10 16.09344 0 0
3:35 pm 15:35 Cloudy 61 16 43 6 52 52 SSE 10 17 30.15 1021 10 16.09344 0 0
3:55 pm 15:55 Cloudy 61 16 43 6 52 52 SSE 10 17 30.15 1021 10 16.09344 0 0
4:15 pm 16:15 Cloudy 61 16 43 6 52 52 SSE 8 13 30.12 1020 10 16.09344 0 0
4:35 pm 16:35 Cloudy 61 16 45 7 55 55 SSE 9 15 30.12 1020 10 16.09344 0 0
4:55 pm 16:55 Cloudy 61 16 45 7 55 55 SE 10 17 30.12 1020 10 16.09344 0 0
5:15 pm 17:15 Cloudy 61 16 45 7 55 55 SE 12 19 30.12 1020 10 16.09344 0 0
5:35 pm 17:35 Mostly Cloudy 61 16 45 7 55 55 E 8 13 30.12 1020 10 16.09344 0 0
5:55 pm 17:55 Sunny 61 16 45 7 55 55 SE 8 13 30.12 1020 10 16.09344 0 0
6:15 pm 18:15 Sunny 59 15 45 7 59 59 ESE 10 17 30.15 1021 10 16.09344 0 0
6:35 pm 18:35 Sunny 59 15 45 7 59 59 ESE 6 9 30.15 1021 10 16.09344 0 0
6:55 pm 18:55 Sunny 59 15 45 7 59 59 ESE 8 13 30.15 1021 10 16.09344 0 0
7:15 pm 19:15 Sunny 59 15 45 7 59 59 ESE 7 11 30.15 1021 10 16.09344 0 0
7:35 pm 19:35 Sunny 59 15 45 7 59 59 ESE 8 13 30.15 1021 10 16.09344 0 0
7:55 pm 19:55 Clear 59 15 45 7 59 59 ESE 6 9 30.15 1021 10 16.09344 0 0
8:15 pm 20:15 Clear 59 15 45 7 59 59 ESE 5 7 30.15 1021 10 16.09344 0 0
8:35 pm 20:35 Clear 59 15 45 7 59 59 ESE 8 13 30.15 1021 10 16.09344 0 0
8:55 pm 20:55 Clear 57 14 45 7 63 63 E 5 7 30.18 1022 10 16.09344 0 0
9:15 pm 21:15 Clear 57 14 45 7 63 63 ESE 8 13 30.18 1022 10 16.09344 0 0
9:35 pm 21:35 Clear 57 14 45 7 63 63 ESE 6 9 30.18 1022 10 16.09344 0 0
9:55 pm 21:55 Clear 55 13 45 7 67 67 E 5 7 30.18 1022 10 16.09344 0 0
10:15 pm 22:15 Clear 55 13 45 7 67 67 E 8 13 30.18 1022 10 16.09344 0 0
10:35 pm 22:35 Clear 54 12 45 7 72 72 E 8 13 30.18 1022 10 16.09344 0 0
10:55 pm 22:55 Clear 54 12 45 7 72 72 ESE 10 17 30.18 1022 10 16.09344 0 0
11:15 pm 23:15 Clear 54 12 45 7 72 72 E 7 11 30.18 1022 10 16.09344 0 0
11:35 pm 23:35 Clear 52 11 45 7 77 77 E 6 9 30.21 1023 10 16.09344 0 0
11:55 pm 23:55 Clear 52 11 45 7 77 77 ESE 7 11 30.21 1023 10 16.09344 0 0

Powered by AerisWeather